Flag for Germany Weather past 2 weeks in Eisenhüttenstadt, Brandenburg, Germany

Now
38 °F

Passing clouds.


Feels Like: 38 °F
Forecast: 39 / 59 °F
Wind: 1 mph from Southwest

Location: Lindenberg

Current Time: Apr 19, 2015 at 3:10:29 AM

Latest Report: Apr 19, 2015 at 2:00 AM


Visibility: 31 mi

Pressure: 30.21 "Hg

Humidity: 70%

Dew point: 29 °F

Location of EisenhüttenstadtLocation

Historic Weather in Eisenhüttenstadt — Graph

°F

Eisenhüttenstadt temperature yesterday

Maximum temperature yesterday: 50 °F (at 4:00 PM)
Minimum temperature yesterday: 31 °F (at 6:00 AM)
Average temperature yesterday: 42 °F

Past Weeks' High & Low Weather Summary

 TemperatureHumidityPressure
High71 °F (Apr 11, 4:00 PM)100% (Apr 9, 6:00 AM)30.55 "Hg (Apr 9, 6:00 AM)
Low26 °F (Apr 5, 7:00 AM)27% (Apr 11, 4:00 PM)29.81 "Hg (Apr 15, 7:00 PM)
Average47 °F65%30.19 "Hg
* Reported Apr 4 1:00 AM — Apr 19 1:00 AM, Eisenhüttenstadt, Weather by CustomWeather, © 2015

Note: Actual official high and low records may vary slightly from our data, if they occured in-between our weather recording intervals... More about our weather records

Advertising

Eisenhüttenstadt weather history for previous 24 hours

 ConditionsComfort  
Time TempWeatherWind HumidityBarometerVisibility
1:00 AM
Sun, Apr 19
38 °FClear.1 mph70%30.21 "Hg31 mi
12:00 AM38 °FClear.1 mph71%30.22 "Hg31 mi
11:00 PM
Sat, Apr 18
38 °FClear.1 mph71%30.22 "Hg31 mi
10:00 PM40 °FClear.2 mph64%30.22 "Hg31 mi
9:00 PM42 °FPassing clouds.1 mph59%30.21 "Hg31 mi
8:00 PM46 °FPassing clouds.1 mph50%30.20 "Hg31 mi
7:00 PM50 °FScattered clouds.2 mph45%30.20 "Hg31 mi
6:00 PM50 °FScattered clouds.2 mph43%30.21 "Hg31 mi
4:00 PM50 °FPartly sunny.3 mph43%30.23 "Hg31 mi
3:00 PM49 °FPartly sunny.3 mph49%30.24 "Hg31 mi
2:00 PM47 °FOvercast.3 mph49%30.25 "Hg31 mi
1:00 PM47 °FPartly sunny.5 mph56%30.25 "Hg31 mi
12:00 PM46 °FOvercast.3 mph58%30.26 "Hg31 mi
10:00 AM42 °FPartly sunny.3 mph72%30.25 "Hg28 mi
9:00 AM42 °FPartly sunny.2 mph81%30.24 "Hg25 mi
8:00 AM37 °FPassing clouds.2 mph91%30.23 "Hg16 mi
7:00 AM31 °FSunny.2 mph97%30.23 "Hg12 mi
6:00 AM31 °FSunny.2 mph96%30.21 "Hg19 mi
4:00 AM34 °FClear.3 mph88%30.17 "Hg25 mi
3:00 AM37 °FClear.3 mph84%30.15 "Hg28 mi
Weather by CustomWeather, © 2015

See weather overviewHow to use our weather pages